This demonstration page uses our WeatherBlox Daily Observations layout. Learn more.

Left ArrowRight Arrow

41.12389, -100.76542

Hourly Observations for March 7, 2019

Temp ( °F °C ) Dew Point ( °F °C ) Humidity (%) Winds ( mph kmh ) Pressure ( in mb ) Visibility ( mi km ) Precip ( " mm )
12:53 am 00:53 Cloudy 23 -5 19 -7.2 85 85 E 9 15 30.14 1021 10 16 0.00 0.00
1:53 am 01:53 Cloudy 23 -5 19 -7.2 85 85 E 14 22 30.12 1020 10 16 0.00 0.03
2:39 am 02:39 Cloudy 23 -5 19 -7.2 85 85 ESE 16 26 30.16 1021 10 16 0.00 0.03
2:53 am 02:53 Cloudy 23 -5 19 -7.2 85 85 ESE 14 22 30.08 1019 9 14 0.00 0.03
3:53 am 03:53 Cloudy 22 -5.6 19 -7.2 89 89 ENE 5 7 30.10 1019 10 16 0.00 0.00
4:53 am 04:53 Cloudy 23 -5 19 -7.2 85 85 E 9 15 30.07 1018 10 16 0.00 0.00
5:53 am 05:53 Cloudy 23 -5 20 -6.7 88 88 ENE 7 11 30.09 1019 10 16 0.00 0.00
6:53 am 06:53 Cloudy 20 -6.7 16 -8.9 85 85 ENE 12 19 30.10 1019 10 16 0.00 0.00
7:53 am 07:53 Cloudy 24 -4.4 21 -6.1 88 88 SE 13 20 30.09 1019 8 13 0.00 0.00
8:53 am 08:53 Cloudy 25 -3.9 22 -5.6 88 88 ESE 10 17 30.11 1020 7 11 0.00 0.00
9:53 am 09:53 Cloudy with Mist and Fog 20 -6.7 17 -8.3 89 89 NE 12 19 30.13 1020 4 6 0.00 0.00
10:15 am 10:15 Cloudy with Mist and Fog 20 -6.7 18 -7.8 92 92 ENE 13 20 30.20 1023 2 3 0.00 0.00
10:21 am 10:21 Cloudy with Mist and Fog 20 -6.7 18 -7.8 92 92 ENE 12 19 30.19 1022 1 2 0.00 0.00
10:30 am 10:30 Cloudy with Mist and Fog 20 -6.7 18 -7.8 92 92 ENE 13 20 30.19 1022 1 2 0.00 0.00
10:53 am 10:53 Cloudy with Mist and Fog 21 -6.1 19 -7.2 92 92 E 12 19 30.09 1019 1 2 0.00 0.00
11:11 am 11:11 Cloudy with Mist and Fog 21 -6.1 20 -6.7 96 96 E 9 15 30.18 1022 1 1 0.00 0.00
11:53 am 11:53 Cloudy with Mist and Fog 23 -5 21 -6.1 92 92 E 8 13 30.09 1019 1 1 0.00 0.00
12:12 pm 12:12 Cloudy with Mist and Fog 24 -4.4 22 -5.6 91 91 ESE 10 17 30.14 1021 2 2 0.00 0.00
12:53 pm 12:53 Cloudy with Mist and Fog 24 -4.4 23 -5 96 96 ESE 10 17 30.07 1018 2 2 0.00 0.00
1:21 pm 13:21 Cloudy with Mist and Fog 25 -3.9 23 -5 92 92 SE 12 19 30.12 1020 2 3 0.00 0.00
1:53 pm 13:53 Cloudy with Mist and Fog 25 -3.9 23 -5 92 92 ESE 12 19 30.04 1017 3 4 0.00 0.00
2:53 pm 14:53 Cloudy with Mist and Fog 26 -3.3 23 -5 88 88 SE 12 19 30.02 1017 2 3 0.00 0.00
3:21 pm 15:21 Cloudy with Mist and Fog 25 -3.9 23 -5 92 92 SE 13 20 30.08 1019 2 3 0.00 0.00
3:53 pm 15:53 Cloudy with Mist and Fog 26 -3.3 23 -5 88 88 ESE 12 19 30.01 1016 2 3 0.00 0.00
4:06 pm 16:06 Cloudy with Mist and Fog 26 -3.3 23 -5 88 88 SE 10 17 30.07 1018 2 3 0.00 0.00
4:14 pm 16:14 Cloudy with Mist and Fog 25 -3.9 23 -5 92 92 ESE 10 17 30.08 1019 2 2 0.00 0.00
4:46 pm 16:46 Cloudy with Mist and Fog 25 -3.9 23 -5 92 92 SE 12 19 30.08 1019 1 2 0.00 0.00
4:53 pm 16:53 Cloudy with Mist and Fog 25 -3.9 23 -5 92 92 SE 12 19 30.02 1017 1 2 0.00 0.00
5:01 pm 17:01 Cloudy with Freezing Fog 25 -3.9 24 -4.4 96 96 SE 10 17 30.08 1019 0 0 0.00 0.00
5:53 pm 17:53 Mostly Cloudy with Freezing Fog 25 -3.9 24 -4.4 96 96 SE 9 15 30.04 1017 0 0 0.00 0.00
6:53 pm 18:53 Mostly Cloudy with Freezing Fog 25 -3.9 24 -4.4 96 96 SE 12 19 30.03 1017 1 1 0.00 0.00
7:33 pm 19:33 Cloudy with Mist and Fog 25 -3.9 23 -5 92 92 SE 9 15 30.09 1019 1 2 0.00 0.00
7:42 pm 19:42 Cloudy with Mist and Fog 25 -3.9 23 -5 92 92 SSE 8 13 30.08 1019 2 3 0.00 0.00
7:53 pm 19:53 Cloudy with Mist and Fog 25 -3.9 23 -5 92 92 SE 8 13 30.02 1017 1 2 0.00 0.00
8:33 pm 20:33 Cloudy with Mist and Fog 25 -3.9 23 -5 92 92 SSE 7 11 30.09 1019 2 2 0.00 0.00
8:53 pm 20:53 Cloudy with Mist and Fog 25 -3.9 23 -5 92 92 SE 6 9 30.03 1017 2 3 0.00 0.00
9:01 pm 21:01 Cloudy with Mist and Fog 25 -3.9 23 -5 92 92 SSE 8 13 30.09 1019 2 3 0.00 0.00
9:16 pm 21:16 Cloudy with Mist and Fog 25 -3.9 23 -5 92 92 SSE 7 11 30.09 1019 2 3 0.00 0.00
9:37 pm 21:37 Cloudy with Mist and Fog 25 -3.9 23 -5 92 92 SE 7 11 30.09 1019 1 2 0.00 0.00
9:53 pm 21:53 Cloudy with Mist and Fog 25 -3.9 23 -5 92 92 SSE 7 11 30.04 1017 1 1 0.00 0.00
10:43 pm 22:43 Cloudy with Mist and Fog 25 -3.9 23 -5 92 92 ESE 5 7 30.08 1019 1 2 0.00 0.00
10:53 pm 22:53 Cloudy with Mist and Fog 26 -3.3 23 -5 88 88 SSE 3 6 30.02 1017 1 2 0.00 0.00
11:01 pm 23:01 Cloudy with Mist and Fog 26 -3.3 23 -5 88 88 SSE 5 7 30.07 1018 2 3 0.00 0.00
11:16 pm 23:16 Cloudy with Mist and Fog 26 -3.3 23 -5 88 88 SSE 5 7 30.07 1018 2 3 0.00 0.00
11:53 pm 23:53 Cloudy with Mist and Fog 26 -3.3 24 -4.4 92 92 S 6 9 30.01 1016 3 5 0.00 0.00

Powered by AerisWeather